Flag for Poland Weather past 2 weeks in Lódz, Poland

Now
63 °F

Overcast.


Feels Like: 63 °F
Forecast: 52 / 60 °F
Wind: 1 mph from North

Location: Lodz

Current Time: Aug 23, 2014 at 9:02:46 PM

Latest Report: Aug 23, 2014 at 8:00 PM


Visibility: 13 mi

Pressure: 29.90 "Hg

Humidity: 62%

Dew point: 50 °F

Location of LódzLocation

Historic Weather in Lódz — Graph

°F

Lódz temperature yesterday

Maximum temperature yesterday: 70 °F (at 5:00 PM)
Minimum temperature yesterday: 43 °F (at 3:00 AM)
Average temperature yesterday: 57 °F

Past Weeks' High & Low Weather Summary

 TemperatureHumidityPressure
High84 °F (Aug 10, 4:00 PM)98% (Aug 9, 2:00 AM)30.07 "Hg (Aug 9, 2:00 AM)
Low43 °F (Aug 22, 3:00 AM)33% (Aug 23, 3:00 PM)29.59 "Hg (Aug 14, 3:00 AM)
Average63 °F74%29.90 "Hg
* Reported Aug 8 7:00 PM — Aug 23 7:00 PM, Lódz, Weather by CustomWeather, © 2014

Note: Actual official high and low records may vary slightly from our data, if they occured in-between our weather recording intervals... More about our weather records

Advertising

Lódz weather history for previous 24 hours

 ConditionsComfort  
Time TempWeatherWind HumidityBarometerVisibility
7:00 PM
Aug 23
68 °FOvercast.1 mph48%29.89 "Hg16 mi
6:00 PM70 °FOvercast.3 mph41%29.89 "Hg14 mi
5:00 PM71 °FOvercast.6 mph35%29.89 "Hg16 mi
4:00 PM72 °FOvercast.7 mph34%29.90 "Hg12 mi
3:00 PM73 °FPartly sunny.7 mph33%29.90 "Hg12 mi
2:00 PM72 °FPartly sunny.7 mph34%29.91 "Hg10 mi
1:00 PM71 °FScattered clouds.6 mph37%29.92 "Hg14 mi
12:00 PM70 °FScattered clouds.8 mph40%29.93 "Hg14 mi
11:00 AM70 °FPassing clouds.6 mph45%29.93 "Hg16 mi
10:00 AM66 °FPassing clouds.6 mph55%29.93 "Hg10 mi
9:00 AM63 °FPassing clouds.6 mph69%29.94 "Hg12 mi
8:00 AM59 °FPartly sunny.5 mph83%29.93 "Hg12 mi
7:00 AM56 °FOvercast.2 mph89%29.93 "Hg11 mi
6:00 AM55 °FOvercast.2 mph89%29.93 "Hg10 mi
5:00 AM56 °FOvercast.2 mph88%29.92 "Hg11 mi
4:00 AM57 °FOvercast.2 mph83%29.93 "Hg9 mi
3:00 AM57 °FOvercast.2 mph82%29.95 "Hg11 mi
2:00 AM55 °FOvercast.2 mph85%29.95 "Hg11 mi
1:00 AM53 °FPassing clouds.2 mph87%29.96 "Hg11 mi
12:00 AM54 °FPassing clouds.2 mph85%29.97 "Hg12 mi
11:00 PM
Aug 22
55 °FPassing clouds.2 mph79%29.97 "Hg12 mi
10:00 PM58 °FPassing clouds.3 mph71%29.97 "Hg13 mi
9:00 PM59 °FPassing clouds.3 mph65%29.97 "Hg7 mi
Weather by CustomWeather, © 2014

See weather overviewHow to use our weather pages